Location: Unspecified
(0.0000°N, 0.0000°E)
Time: 23:08:04
(UTC+00:00)

Tiangong 2 - Pass Details

Date: 20 April 2018
Orbit: 381 x 388 km, 42.8° (Epoch: 26 April)

Event Time Altitude Azimuth Distance (km) Brightness Sun altitude
Rises 19:07:55 0° 331° (NNW) 2,237 5.6 -16.9°
Reaches altitude 10° 19:10:08 10° 343° (NNW) 1,386 4.3 -17.4°
Enters shadow 19:12:25 27° 27° (NNE) 760 2.4 -18.0°
